Flag for Spain Weather past 2 weeks in Santa Cruz de Tenerife, Canary Islands, Spain

Now
59 °F

Partly sunny.


Feels Like: 55 °F
Forecast: 67 / 73 °F
Wind: 25 mph from Northwest

Location: Tenerife / Los Rodeos

Current Time: May 22, 2015 at 12:43:55 PM

Latest Report: May 22, 2015 at 12:00 PM


Visibility: N/A

Pressure: 30.24 "Hg

Humidity: 77%

Dew point: 52 °F

Location of Santa Cruz de TenerifeLocation

Historic Weather in Santa Cruz de Tenerife — Graph

°F

Santa Cruz de Tenerife temperature yesterday

Maximum temperature yesterday: 63 °F (at 2:00 PM)
Minimum temperature yesterday: 55 °F (at 6:00 AM)
Average temperature yesterday: 58 °F

Past Weeks' High & Low Weather Summary

 TemperatureHumidityPressure
High95 °F (May 11, 4:00 PM)100% (May 8, 6:30 AM)30.27 "Hg (May 8, 6:30 AM)
Low54 °F (May 9, 6:00 AM)8% (May 11, 6:30 AM)30.04 "Hg (May 11, 6:30 AM)
Average68 °F63%30.15 "Hg
* Reported May 7 11:00 AM — May 22 11:30 AM, Santa Cruz de Tenerife, Weather by CustomWeather, © 2015

Note: Actual official high and low records may vary slightly from our data, if they occured in-between our weather recording intervals... More about our weather records

Advertising

Santa Cruz de Tenerife weather history for previous 24 hours

 ConditionsComfort  
Time TempWeatherWind HumidityBarometerVisibility
11:30 AM
Fri, May 22
61 °FPartly sunny.23 mph72%30.24 "HgN/A
11:00 AM59 °FPartly sunny.22 mph77%30.24 "HgN/A
10:30 AM59 °FPartly sunny.22 mph82%30.24 "HgN/A
10:00 AM55 °FLight rain. Partly sunny.22 mph94%30.24 "Hg6 mi
9:30 AM55 °FPartly sunny.23 mph88%30.24 "HgN/A
9:00 AM55 °FBroken clouds.25 mph88%30.24 "HgN/A
8:30 AM55 °FBroken clouds.29 mph88%30.21 "HgN/A
8:00 AM55 °FLight rain. Passing clouds.29 mph88%30.21 "HgN/A
7:30 AM55 °FPassing clouds.32 mph88%30.21 "HgN/A
7:00 AM55 °FPassing clouds.32 mph82%30.18 "HgN/A
6:30 AM54 °FPassing clouds.32 mph94%30.18 "HgN/A
6:00 AM55 °FPassing clouds.32 mph88%30.18 "HgN/A
11:00 PM
Thu, May 21
55 °FPassing clouds.23 mph94%30.27 "HgN/A
10:30 PM57 °FPassing clouds.21 mph88%30.27 "HgN/A
10:00 PM57 °FPassing clouds.23 mph88%30.27 "HgN/A
9:30 PM55 °FScattered clouds.21 mph94%30.27 "HgN/A
9:00 PM57 °FScattered clouds.23 mph88%30.24 "HgN/A
8:30 PM57 °FScattered clouds.20 mph88%30.24 "HgN/A
8:00 PM57 °FScattered clouds.21 mph88%30.24 "HgN/A
7:30 PM57 °FScattered clouds.20 mph88%30.24 "HgN/A
7:00 PM59 °FScattered clouds.17 mph82%30.24 "HgN/A
6:30 PM61 °FScattered clouds.21 mph72%30.24 "HgN/A
6:00 PM61 °FScattered clouds.23 mph77%30.24 "HgN/A
5:30 PM61 °FScattered clouds.24 mph72%30.24 "HgN/A
5:00 PM61 °FScattered clouds.23 mph72%30.24 "HgN/A
4:30 PM61 °FScattered clouds.23 mph77%30.24 "HgN/A
4:00 PM63 °FScattered clouds.24 mph68%30.24 "HgN/A
3:30 PM61 °FScattered clouds.25 mph72%30.24 "HgN/A
3:00 PM61 °FScattered clouds.22 mph72%30.24 "HgN/A
2:30 PM59 °FScattered clouds.25 mph77%30.24 "HgN/A
2:00 PM63 °FScattered clouds.23 mph68%30.24 "HgN/A
1:30 PM61 °FPartly sunny.23 mph77%30.27 "HgN/A
1:00 PM59 °FPartly sunny.23 mph82%30.27 "HgN/A
12:30 PM59 °FPartly sunny.23 mph77%30.27 "HgN/A
12:00 PM61 °FPartly sunny.22 mph72%30.27 "HgN/A
Weather by CustomWeather, © 2015

See weather overviewHow to use our weather pages